MOZHAYETS 4 (RS-22)

Last updated on Sat Feb 08 2025 00:03:03 GMT+0000 (Coordinated Universal Time)

1 27939U 03042A 25038.80709797 .00002584 00000+0 42225-3 0 9990 2 27939 98.3126 205.4451 0012238 39.4756 71.3241 14.71725686142914
UTC large
Height (km)
Speed (km/s)
/
Latitude / Longitude
Inclination (degrees)
Orbital Period (minutes)
Azimuth
Elevation
Range (km)
Doppler Factor

Next 0 passes for location: London (51.5072 / 0.1276)

Sorry there are no passes over London.